{"data":{"norad_id":64203,"epoch":"2026-09-19T12:53:11.404320Z","epoch_age_seconds":223587,"freshness":"STALE","line1":"1 64203U 25117A   26262.53693755  .00019726  00000+0  59347-3 0  9997","line2":"2 64203  53.1594 217.8536 0000578 120.6396 239.4663 15.34396181 74255","mean_motion":15.34396181,"eccentricity":5.78e-5,"inclination_deg":53.1594,"raan_deg":217.8536,"arg_perigee_deg":120.6396,"mean_anomaly_deg":239.4663,"bstar":0.00059347,"rev_number":7425,"period_min":93.847991661549,"perigee_km":462.3191898815,"apogee_km":463.10999232543,"semimajor_km":6840.8515911035,"source":"CELESTRAK","updated_at":"2026-09-21T09:00:35.269817Z"}}